Miscellaneous Local Product
Issued by NWS North Platte, NE

Home | Current Version | Previous Version | Graphics & Text | Print | Product List | Glossary On
Versions: 1 2 3 4 5 6 7 8 9 10 11 12 13 14 15 16 17 18 19 20 21 22 23 24 25 26 27 28 29 30 31 32 33 34 35 36 37 38 39 40 41 42 43 44 45 46 47 48 49 50
000
AXUS43 KLBF 050910
MISLBF


WESTERN AND NORTH CENTRAL NEBRASKA HOURLY WEATHER ROUNDUP
NATIONAL WEATHER SERVICE NORTH PLATTE NE
300 AM CST THU MAR 05 2015

***STATIONS NOT REPORTING VARIABLES SUCH AS SKY/WEATHER OR
PRESSURE ARE PROVIDED BY THE NEBRASKA DEPARTMENT OF
ROADS...RAWS...AND APRS NETWORKS...AND ARE NOT UNDER
NATIONAL WEATHER SERVICE QUALITY CONTROL***

...OBSERVATIONS IN AND NEAR THE EASTERN PANHANDLE OF NEBRASKA...

CITY           SKY/WX    TMP DP  RH WIND       PRES   REMARKS
PINE RIDGE     PTCLDY    -8 -14  74 CALM      30.23F
CHADRON        MOCLDY    -6 -11  79 SW3       30.24F
ALLIANCE       PTCLDY     0  -6  76 CALM      30.21F
SIDNEY         CLEAR      9   4  80 W10       30.22F WCI  -5
WHITECLAY        N/A     -5 -11  74 E7          N/A  WCI -19
CRESCENT LAKE    N/A      7   2  81 CALM        N/A
LISCO            N/A      8   0  72 CALM        N/A
BIG SPRINGS      N/A     11   7  83 SW6         N/A  WCI   2
LEWELLEN         N/A      2  -4  78 CALM        N/A
$$

...OBSERVATIONS IN NORTH CENTRAL NEBRASKA...

CITY           SKY/WX    TMP DP  RH WIND       PRES   REMARKS
VALENTINE      CLEAR      0  -4  83 W6        30.32F WCI -12
THEDFORD       CLEAR      4  -1  80 SW7       30.31F WCI  -8
AINSWORTH      CLEAR      3  -2  79 SW8       30.32F WCI -11
O`NEILL        CLEAR      0  -2  90 SW3       30.38F
ORD            CLEAR     -1  -8  72 SW3       30.40S
BROKEN BOW     CLEAR      1  -5  75 CALM      30.35F
BROWNLEE         N/A     -1  -4  84 S5          N/A  WCI -11
SPRINGVIEW       N/A     -7 -11  81 CALM        N/A
BREWSTER         N/A      5   1  83 CALM        N/A
ROSE             N/A     10   8  91 S3          N/A
NEWPORT          N/A      6   3  88 SW5         N/A  WCI  -3
SARGENT          N/A      1  -3  85 CALM        N/A
COMSTOCK         N/A      5  -3  71 CALM        N/A
CHAMBERS         N/A     -1 -20  40 S3          N/A
EWING            N/A     -1  -6  78 CALM        N/A
$$

...OBSERVATIONS IN SOUTHWEST NEBRASKA AND FAR NORTHEAST COLORADO...

CITY           SKY/WX    TMP DP  RH WIND       PRES   REMARKS
WRAY           FAIR      11   8  86 SW7       30.28F WCI   0
IMPERIAL         N/A      8   1  73 CALM      30.29F
OGALLALA       CLEAR      4   1  83 CALM      30.28F
NORTH PLATTE   CLEAR      4  -3  73 E3        30.33F
MCCOOK         CLEAR     12   2  64 E5        30.35S WCI   4
LEXINGTON      CLEAR      4   0  81 CALM      30.37F
PAXTON           N/A      2  -4  75 CALM        N/A
BRADY            N/A      4  -3  72 CALM        N/A
GOTHENBURG       N/A      7   0  71 CALM        N/A
CALLAWAY         N/A      2  -3  79 SE3         N/A
$$

...NORTH PLATTE AREA...

CITY           SKY/WX    TMP DP  RH WIND       PRES   REMARKS
AIRPORT        CLEAR      4  -3  73 E3        30.33F
DOWNTOWN         N/A      6  -1  74 CALM        N/A
$$

...SOME WEATHER OBSERVATIONS FROM AROUND THE REGION...

CITY           SKY/WX    TMP DP  RH WIND       PRES   REMARKS
DENVER         PTCLDY    13   0  56 S15       30.17S WCI  -3
LARAMIE        PTCLDY    12   1  61 SW20      30.10S WCI  -6
CHEYENNE       CLEAR     12  -1  56 W12       30.12F WCI  -2
SCOTTSBLUFF    CLEAR      7   1  76 N3        30.22F
RAPID CITY     PTCLDY     4  -1  80 S5        30.19F WCI  -5
PIERRE         CLEAR     -5 -10  79 SE9       30.36F WCI -22
WINNER         FAIR       5  -5  63 SW9       30.35F WCI  -9
SIOUX FALLS    CLEAR     -8 -13  78 W3        30.43F
OMAHA          CLEAR      6  -4  63 CALM      30.51R
GRAND ISLAND   CLEAR      5  -2  72 CALM      30.44F
KANSAS CITY    CLEAR     10   2  69 N8        30.45S WCI  -2
WICHITA        PTCLDY    14   9  80 NW3       30.45R
HAYS           MOCLDY    16   1  53 W6        30.38F WCI   7
LIBERAL        CLEAR      9   1  72 W8        30.40F WCI  -4
GOODLAND       CLEAR     16   9  74 W13       30.29S WCI   2
$$



USA.gov is the U.S. government's official web portal to all federal, state and local government web resources and services.